Precipitable_Water
0.19 0.16 0.14 0.15 0.17 0.19 0.20 0.21 0.22 0.24 0.21 0.19 0.17 0.16 0.16 0.15 0.16 0.19 0.17 0.17 0.18 0.14 0.13 0.14 0.15 0.15 0.16 0.18 0.26 0.25 0.32 0.40 0.40 0.46 0.53 0.58 0.60 0.65 0.72 0.73 0.77 0.85 0.89 0.95 0.99 1.06 1.04 0.95 0.98 1.00 1.03 1.04 1.06 1.08 1.17 1.22 1.23 1.24 1.23 1.25 1.31 1.47 1.52 1.49 1.46 1.46 1.48 1.43 1.43 1.48 1.48 1.46 1.52 1.54 1.56 1.54 1.55 1.56 1.57 1.59 1.57 1.51 1.52 1.52 1.54 1.51
0.20 0.16 0.15 0.16 0.20 0.22 0.25 0.26 0.25 0.24 0.22 0.19 0.18 0.17 0.16 0.16 0.15 0.19 0.18 0.19 0.18 0.14 0.13 0.15 0.15 0.16 0.16 0.18 0.23 0.26 0.25 0.29 0.36 0.40 0.47 0.50 0.53 0.57 0.61 0.69 0.74 0.88 0.96 1.02 1.00 1.07 1.10 0.99 0.94 1.01 1.04 1.06 1.02 1.11 1.21 1.21 1.23 1.27 1.29 1.28 1.35 1.42 1.47 1.48 1.49 1.47 1.47 1.50 1.49 1.47 1.45 1.47 1.47 1.47 1.44 1.43 1.50 1.51 1.55 1.56 1.59 1.56 1.54 1.53 1.49 1.46
0.16 0.13 0.16 0.19 0.25 0.28 0.27 0.26 0.26 0.23 0.21 0.21 0.18 0.18 0.16 0.16 0.18 0.21 0.19 0.18 0.18 0.15 0.12 0.14 0.14 0.15 0.16 0.18 0.22 0.26 0.23 0.24 0.33 0.41 0.44 0.47 0.50 0.55 0.60 0.68 0.76 0.81 0.80 0.93 1.00 1.02 1.04 1.03 0.94 0.98 1.05 1.09 1.13 1.18 1.22 1.23 1.23 1.30 1.32 1.34 1.35 1.41 1.45 1.48 1.49 1.52 1.49 1.53 1.56 1.53 1.52 1.50 1.43 1.53 1.53 1.50 1.52 1.55 1.54 1.56 1.56 1.53 1.51 1.48 1.45 1.41
0.14 0.15 0.18 0.25 0.27 0.24 0.23 0.24 0.25 0.24 0.23 0.21 0.20 0.16 0.15 0.18 0.16 0.15 0.21 0.20 0.19 0.15 0.15 0.19 0.17 0.17 0.18 0.19 0.20 0.25 0.24 0.24 0.26 0.37 0.44 0.47 0.49 0.53 0.60 0.68 0.71 0.70 0.77 0.80 0.90 0.93 1.01 1.03 1.01 0.97 1.01 1.09 1.16 1.18 1.22 1.22 1.20 1.24 1.30 1.36 1.39 1.38 1.42 1.47 1.50 1.52 1.54 1.59 1.57 1.56 1.53 1.55 1.50 1.45 1.51 1.51 1.51 1.51 1.50 1.47 1.51 1.49 1.46 1.44 1.41 1.37
0.17 0.23 0.24 0.25 0.23 0.21 0.22 0.23 0.22 0.22 0.19 0.21 0.20 0.19 0.18 0.18 0.19 0.16 0.17 0.22 0.20 0.17 0.16 0.14 0.13 0.12 0.14 0.15 0.17 0.25 0.26 0.26 0.27 0.29 0.39 0.49 0.52 0.59 0.69 0.71 0.76 0.73 0.72 0.81 0.90 0.92 0.97 1.01 1.03 1.01 1.02 1.11 1.14 1.18 1.20 1.21 1.20 1.22 1.26 1.34 1.38 1.40 1.43 1.47 1.51 1.51 1.49 1.46 1.47 1.51 1.48 1.51 1.46 1.46 1.43 1.40 1.38 1.42 1.45 1.45 1.42 1.43 1.46 1.40 1.30 1.26
0.22 0.26 0.26 0.21 0.20 0.21 0.22 0.22 0.22 0.21 0.18 0.20 0.23 0.21 0.20 0.20 0.18 0.17 0.17 0.15 0.14 0.14 0.18 0.15 0.10 0.11 0.14 0.17 0.17 0.24 0.31 0.25 0.29 0.27 0.27 0.34 0.46 0.55 0.60 0.67 0.78 0.79 0.79 0.83 0.87 0.92 0.97 1.00 1.05 1.07 1.09 1.13 1.19 1.21 1.24 1.25 1.24 1.26 1.30 1.34 1.40 1.40 1.46 1.45 1.42 1.45 1.46 1.39 1.39 1.36 1.31 1.26 1.24 1.22 1.25 1.22 1.25 1.31 1.33 1.34 1.45 1.46 1.39 1.28 1.25 1.22
0.26 0.29 0.23 0.20 0.20 0.20 0.21 0.21 0.23 0.22 0.19 0.18 0.21 0.25 0.21 0.18 0.17 0.17 0.17 0.15 0.11 0.10 0.23 0.20 0.11 0.11 0.19 0.21 0.22 0.21 0.26 0.27 0.38 0.32 0.32 0.32 0.35 0.46 0.54 0.65 0.72 0.74 0.76 0.84 0.94 0.95 0.94 0.98 1.03 1.10 1.17 1.21 1.21 1.23 1.28 1.27 1.26 1.28 1.31 1.33 1.39 1.43 1.44 1.46 1.43 1.47 1.45 1.38 1.39 1.32 1.26 1.25 1.23 1.20 1.24 1.31 1.36 1.34 1.36 1.40 1.37 1.33 1.26 1.24 1.19 1.17
0.25 0.25 0.24 0.23 0.22 0.21 0.20 0.18 0.22 0.23 0.20 0.18 0.26 0.21 0.19 0.18 0.17 0.17 0.16 0.15 0.13 0.22 0.24 0.21 0.17 0.13 0.13 0.18 0.25 0.25 0.26 0.27 0.36 0.40 0.39 0.37 0.37 0.40 0.54 0.64 0.70 0.73 0.79 0.83 0.93 0.93 0.95 0.99 1.05 1.09 1.20 1.23 1.23 1.27 1.29 1.27 1.28 1.28 1.30 1.33 1.35 1.40 1.42 1.42 1.46 1.41 1.43 1.39 1.38 1.27 1.26 1.30 1.27 1.19 1.23 1.30 1.33 1.38 1.39 1.34 1.25 1.18 1.19 1.20 1.16 1.13
0.25 0.24 0.23 0.22 0.22 0.21 0.21 0.21 0.26 0.24 0.20 0.22 0.23 0.21 0.19 0.20 0.19 0.18 0.17 0.16 0.16 0.18 0.15 0.19 0.20 0.13 0.12 0.16 0.24 0.29 0.23 0.31 0.39 0.41 0.41 0.42 0.45 0.50 0.57 0.65 0.69 0.72 0.79 0.86 0.92 0.91 0.93 0.98 1.05 1.13 1.19 1.26 1.30 1.34 1.31 1.29 1.30 1.30 1.32 1.33 1.36 1.37 1.39 1.42 1.41 1.41 1.42 1.39 1.42 1.33 1.36 1.23 1.27 1.26 1.25 1.29 1.32 1.33 1.30 1.21 1.13 1.12 1.13 1.15 1.17 1.14
0.29 0.28 0.28 0.25 0.23 0.20 0.22 0.24 0.26 0.26 0.20 0.23 0.23 0.22 0.22 0.22 0.20 0.20 0.17 0.18 0.20 0.16 0.12 0.16 0.21 0.14 0.12 0.16 0.23 0.27 0.24 0.35 0.43 0.43 0.46 0.47 0.49 0.55 0.59 0.65 0.73 0.77 0.82 0.90 0.93 0.89 0.90 0.96 1.04 1.13 1.21 1.26 1.23 1.29 1.36 1.34 1.32 1.29 1.30 1.30 1.32 1.33 1.37 1.42 1.41 1.42 1.38 1.35 1.39 1.26 1.31 1.25 1.23 1.25 1.25 1.27 1.24 1.25 1.21 1.10 1.06 1.06 1.06 1.09 1.11 1.11
0.29 0.33 0.33 0.29 0.25 0.24 0.25 0.27 0.28 0.26 0.24 0.28 0.23 0.21 0.22 0.21 0.21 0.20 0.21 0.20 0.19 0.15 0.14 0.18 0.23 0.16 0.11 0.14 0.23 0.32 0.45 0.45 0.44 0.46 0.51 0.53 0.56 0.58 0.62 0.68 0.71 0.77 0.84 0.89 0.85 0.85 0.88 0.96 1.03 1.09 1.12 1.21 1.25 1.30 1.33 1.32 1.29 1.27 1.28 1.28 1.30 1.35 1.38 1.39 1.38 1.38 1.34 1.38 1.28 1.31 1.32 1.28 1.23 1.23 1.21 1.17 1.16 1.15 1.06 1.00 0.99 0.99 1.01 1.07 1.06 1.08
0.27 0.27 0.28 0.30 0.33 0.32 0.31 0.29 0.29 0.27 0.26 0.23 0.21 0.21 0.21 0.21 0.21 0.20 0.20 0.21 0.15 0.12 0.17 0.24 0.23 0.19 0.11 0.14 0.36 0.42 0.48 0.49 0.48 0.46 0.50 0.53 0.57 0.58 0.69 0.73 0.76 0.77 0.82 0.84 0.81 0.81 0.85 0.91 0.98 1.04 1.08 1.17 1.23 1.26 1.27 1.26 1.26 1.26 1.26 1.27 1.30 1.34 1.35 1.34 1.34 1.32 1.33 1.29 1.35 1.37 1.32 1.28 1.23 1.19 1.16 1.13 1.07 0.99 0.94 0.92 0.91 0.98 0.97 0.97 1.02 1.04
0.23 0.24 0.28 0.29 0.32 0.29 0.26 0.23 0.23 0.23 0.23 0.22 0.21 0.21 0.17 0.17 0.17 0.14 0.17 0.15 0.13 0.12 0.22 0.24 0.21 0.17 0.14 0.27 0.38 0.46 0.47 0.49 0.56 0.55 0.54 0.56 0.58 0.62 0.67 0.71 0.77 0.81 0.81 0.75 0.76 0.80 0.85 0.91 1.00 1.04 1.11 1.17 1.15 1.17 1.21 1.21 1.24 1.26 1.25 1.26 1.25 1.26 1.27 1.24 1.25 1.24 1.26 1.27 1.29 1.30 1.28 1.26 1.22 1.18 1.17 1.12 1.03 0.92 0.85 0.85 0.88 0.88 0.88 0.88 0.87 0.90
0.22 0.26 0.27 0.29 0.29 0.30 0.27 0.20 0.20 0.18 0.20 0.20 0.19 0.19 0.16 0.14 0.15 0.13 0.15 0.16 0.15 0.18 0.25 0.23 0.22 0.15 0.18 0.36 0.37 0.41 0.50 0.56 0.57 0.63 0.62 0.60 0.61 0.65 0.67 0.70 0.71 0.74 0.78 0.76 0.77 0.81 0.86 0.94 1.00 1.06 1.11 1.14 1.13 1.17 1.19 1.20 1.21 1.24 1.24 1.23 1.18 1.15 1.19 1.20 1.21 1.22 1.23 1.25 1.28 1.30 1.28 1.26 1.20 1.18 1.20 1.11 0.96 0.86 0.87 0.89 0.88 0.86 0.83 0.80 0.82 0.83
0.17 0.20 0.22 0.25 0.23 0.29 0.26 0.24 0.23 0.22 0.22 0.20 0.22 0.21 0.19 0.17 0.16 0.15 0.13 0.13 0.14 0.15 0.26 0.26 0.17 0.14 0.13 0.28 0.41 0.51 0.58 0.61 0.65 0.66 0.68 0.66 0.68 0.70 0.71 0.73 0.73 0.66 0.68 0.72 0.78 0.80 0.86 0.95 1.02 1.05 1.11 1.12 1.12 1.17 1.19 1.21 1.21 1.22 1.21 1.21 1.18 1.17 1.20 1.22 1.23 1.25 1.26 1.28 1.30 1.30 1.31 1.26 1.22 1.23 1.17 1.04 0.96 0.89 0.84 0.85 0.82 0.85 0.85 0.82 0.83 0.83
0.20 0.20 0.27 0.29 0.28 0.29 0.25 0.26 0.28 0.27 0.25 0.24 0.24 0.24 0.21 0.20 0.22 0.17 0.21 0.20 0.18 0.18 0.22 0.22 0.17 0.22 0.28 0.49 0.56 0.61 0.61 0.64 0.67 0.67 0.65 0.63 0.66 0.67 0.66 0.67 0.68 0.73 0.74 0.78 0.81 0.82 0.89 0.97 1.03 1.07 1.13 1.14 1.12 1.16 1.20 1.20 1.22 1.21 1.19 1.19 1.18 1.15 1.15 1.21 1.24 1.27 1.28 1.28 1.32 1.31 1.28 1.23 1.25 1.22 1.11 1.00 0.92 0.84 0.83 0.83 0.86 0.90 0.89 0.89 0.88 0.92
0.21 0.18 0.25 0.27 0.28 0.27 0.26 0.26 0.26 0.28 0.19 0.24 0.23 0.19 0.21 0.27 0.25 0.23 0.21 0.23 0.20 0.18 0.17 0.26 0.21 0.22 0.35 0.46 0.50 0.57 0.56 0.60 0.65 0.67 0.67 0.66 0.67 0.71 0.71 0.70 0.71 0.75 0.78 0.80 0.83 0.89 0.95 1.01 1.04 1.08 1.12 1.15 1.13 1.14 1.18 1.20 1.23 1.23 1.21 1.17 1.15 1.15 1.19 1.21 1.23 1.27 1.27 1.27 1.26 1.28 1.27 1.26 1.23 1.14 0.98 0.84 0.77 0.80 0.89 0.91 0.94 0.95 0.96 0.96 0.93 0.91
0.21 0.19 0.27 0.23 0.21 0.25 0.29 0.28 0.28 0.27 0.26 0.29 0.21 0.23 0.28 0.29 0.28 0.24 0.18 0.21 0.17 0.14 0.18 0.22 0.17 0.22 0.25 0.24 0.46 0.50 0.52 0.56 0.59 0.64 0.68 0.72 0.72 0.72 0.74 0.78 0.80 0.82 0.86 0.90 0.94 1.00 1.03 1.04 1.05 1.07 1.12 1.15 1.15 1.16 1.19 1.20 1.24 1.27 1.26 1.21 1.18 1.18 1.16 1.17 1.19 1.24 1.24 1.20 1.22 1.25 1.24 1.24 1.20 1.09 0.94 0.84 0.80 0.85 0.92 0.99 1.00 1.00 0.94 0.92 0.92 0.89
0.26 0.20 0.26 0.25 0.24 0.25 0.27 0.26 0.25 0.28 0.29 0.26 0.26 0.33 0.24 0.22 0.18 0.23 0.20 0.16 0.16 0.15 0.15 0.19 0.19 0.20 0.26 0.28 0.41 0.45 0.47 0.51 0.56 0.63 0.70 0.70 0.74 0.75 0.80 0.81 0.87 0.91 0.92 0.94 0.97 0.99 1.02 1.04 1.07 1.11 1.12 1.16 1.22 1.23 1.24 1.25 1.26 1.29 1.28 1.25 1.22 1.18 1.15 1.15 1.19 1.26 1.28 1.25 1.24 1.26 1.24 1.21 1.17 1.08 0.96 0.90 0.90 0.92 0.95 0.97 0.99 0.94 0.93 0.93 0.90 0.87
0.32 0.21 0.25 0.29 0.25 0.26 0.25 0.24 0.20 0.23 0.27 0.28 0.30 0.28 0.30 0.29 0.25 0.23 0.22 0.20 0.19 0.17 0.16 0.17 0.21 0.18 0.31 0.42 0.49 0.45 0.52 0.57 0.58 0.63 0.65 0.70 0.73 0.79 0.83 0.85 0.89 0.92 0.95 0.96 0.98 1.02 1.05 1.07 1.09 1.11 1.14 1.18 1.25 1.27 1.25 1.26 1.28 1.30 1.29 1.25 1.23 1.21 1.18 1.15 1.16 1.24 1.26 1.24 1.24 1.24 1.24 1.22 1.17 1.10 1.01 0.93 0.91 0.91 0.96 1.00 1.01 0.98 0.93 0.88 0.86 0.90
0.30 0.30 0.23 0.28 0.28 0.27 0.21 0.23 0.23 0.25 0.24 0.24 0.23 0.23 0.27 0.26 0.31 0.30 0.32 0.24 0.21 0.18 0.17 0.17 0.17 0.27 0.40 0.49 0.45 0.49 0.54 0.59 0.65 0.62 0.67 0.71 0.75 0.79 0.83 0.88 0.90 0.93 0.95 0.96 1.00 1.02 1.05 1.07 1.12 1.14 1.16 1.20 1.25 1.29 1.27 1.27 1.30 1.31 1.29 1.24 1.24 1.19 1.16 1.13 1.15 1.22 1.24 1.22 1.22 1.22 1.20 1.19 1.18 1.11 1.04 0.95 0.89 0.91 0.91 0.96 1.06 1.01 0.93 0.87 0.86 0.93
0.30 0.30 0.23 0.28 0.25 0.22 0.24 0.31 0.34 0.32 0.32 0.27 0.26 0.23 0.24 0.25 0.24 0.19 0.19 0.25 0.23 0.20 0.19 0.17 0.15 0.29 0.46 0.51 0.53 0.52 0.59 0.62 0.69 0.67 0.66 0.71 0.75 0.77 0.83 0.89 0.94 0.93 0.95 0.98 1.03 1.04 1.05 1.07 1.08 1.13 1.18 1.22 1.22 1.21 1.23 1.29 1.31 1.27 1.24 1.23 1.22 1.22 1.18 1.14 1.16 1.21 1.21 1.19 1.24 1.21 1.20 1.19 1.19 1.13 1.04 0.93 0.90 0.93 0.96 0.96 1.00 0.99 0.91 0.83 0.86 0.90
0.36 0.33 0.27 0.25 0.26 0.26 0.33 0.34 0.37 0.36 0.34 0.33 0.32 0.28 0.27 0.28 0.28 0.25 0.18 0.23 0.23 0.22 0.24 0.24 0.21 0.30 0.51 0.54 0.57 0.59 0.63 0.65 0.68 0.69 0.68 0.74 0.79 0.83 0.87 0.90 0.92 0.94 0.94 0.97 1.00 1.03 1.04 1.04 1.05 1.08 1.14 1.20 1.20 1.20 1.24 1.26 1.27 1.25 1.27 1.24 1.23 1.21 1.19 1.17 1.21 1.26 1.22 1.20 1.23 1.24 1.23 1.20 1.17 1.12 1.05 0.93 0.90 0.91 0.93 0.96 0.99 0.97 0.88 0.85 0.84 0.89
0.39 0.30 0.27 0.27 0.30 0.32 0.34 0.37 0.38 0.38 0.36 0.31 0.31 0.32 0.31 0.28 0.29 0.26 0.26 0.30 0.26 0.26 0.20 0.20 0.18 0.29 0.51 0.58 0.59 0.62 0.65 0.68 0.69 0.71 0.70 0.75 0.80 0.83 0.85 0.87 0.89 0.91 0.89 0.91 0.98 1.01 1.03 1.02 1.04 1.06 1.05 1.12 1.17 1.19 1.21 1.25 1.23 1.24 1.27 1.22 1.24 1.20 1.23 1.22 1.24 1.27 1.24 1.22 1.23 1.26 1.24 1.22 1.20 1.15 1.06 0.95 0.93 0.94 0.95 0.94 0.96 0.94 0.90 0.88 0.86 0.85
0.31 0.31 0.29 0.25 0.24 0.27 0.30 0.32 0.32 0.38 0.34 0.34 0.36 0.35 0.33 0.33 0.32 0.31 0.31 0.30 0.23 0.26 0.24 0.22 0.18 0.29 0.49 0.59 0.59 0.60 0.62 0.63 0.67 0.73 0.77 0.77 0.80 0.81 0.84 0.86 0.88 0.89 0.89 0.90 0.91 0.93 0.94 0.95 0.97 1.00 1.04 1.08 1.11 1.14 1.17 1.20 1.23 1.25 1.23 1.23 1.23 1.24 1.26 1.28 1.29 1.27 1.26 1.23 1.23 1.25 1.24 1.24 1.25 1.20 1.10 1.01 0.99 0.99 0.99 0.96 0.96 0.95 0.92 0.89 0.85 0.85
0.36 0.37 0.30 0.23 0.20 0.18 0.19 0.19 0.21 0.25 0.28 0.36 0.34 0.34 0.33 0.31 0.31 0.28 0.22 0.25 0.21 0.24 0.26 0.24 0.28 0.38 0.53 0.55 0.54 0.56 0.58 0.59 0.65 0.71 0.76 0.79 0.80 0.80 0.81 0.83 0.79 0.80 0.88 0.92 0.92 0.93 0.91 0.94 0.99 1.02 1.01 1.05 1.09 1.09 1.13 1.19 1.24 1.26 1.25 1.22 1.28 1.22 1.22 1.22 1.30 1.31 1.26 1.25 1.25 1.26 1.28 1.29 1.31 1.24 1.20 1.12 1.10 1.06 1.03 0.99 0.97 0.96 0.94 0.88 0.83 0.82
0.43 0.42 0.39 0.35 0.30 0.25 0.27 0.33 0.37 0.37 0.36 0.28 0.31 0.33 0.34 0.34 0.35 0.32 0.30 0.26 0.22 0.27 0.25 0.24 0.29 0.36 0.41 0.47 0.49 0.52 0.56 0.56 0.59 0.66 0.69 0.73 0.77 0.79 0.81 0.82 0.85 0.86 0.86 0.88 0.91 0.95 0.96 0.95 0.97 0.98 0.99 1.02 1.07 1.11 1.16 1.19 1.20 1.22 1.24 1.22 1.24 1.26 1.21 1.17 1.21 1.27 1.21 1.27 1.26 1.25 1.22 1.21 1.23 1.23 1.18 1.20 1.20 1.17 1.09 1.01 0.98 0.96 0.90 0.85 0.83 0.79
0.44 0.39 0.40 0.39 0.37 0.38 0.40 0.40 0.41 0.38 0.36 0.37 0.33 0.33 0.34 0.34 0.36 0.31 0.26 0.26 0.34 0.29 0.24 0.36 0.35 0.31 0.37 0.44 0.49 0.51 0.56 0.60 0.62 0.66 0.69 0.73 0.76 0.77 0.78 0.81 0.84 0.85 0.88 0.90 0.92 0.93 0.93 0.94 0.95 0.97 0.99 1.03 1.07 1.13 1.17 1.19 1.22 1.22 1.22 1.19 1.23 1.23 1.20 1.17 1.20 1.26 1.23 1.21 1.21 1.25 1.19 1.21 1.22 1.22 1.21 1.20 1.17 1.17 1.14 1.04 1.01 0.96 0.90 0.83 0.80 0.77
0.41 0.34 0.40 0.41 0.39 0.42 0.43 0.42 0.42 0.40 0.38 0.37 0.36 0.35 0.34 0.35 0.36 0.31 0.31 0.34 0.35 0.27 0.22 0.37 0.39 0.34 0.40 0.45 0.49 0.54 0.56 0.59 0.64 0.67 0.71 0.74 0.76 0.76 0.77 0.78 0.80 0.82 0.84 0.86 0.89 0.91 0.92 0.92 0.95 0.97 0.99 1.01 1.04 1.04 1.08 1.13 1.16 1.21 1.22 1.21 1.21 1.22 1.21 1.24 1.27 1.28 1.27 1.23 1.22 1.22 1.24 1.22 1.22 1.22 1.22 1.20 1.17 1.16 1.14 1.08 1.02 0.97 0.92 0.85 0.81 0.79
0.48 0.39 0.42 0.42 0.40 0.42 0.43 0.44 0.44 0.41 0.39 0.39 0.38 0.37 0.38 0.38 0.36 0.38 0.36 0.38 0.34 0.34 0.37 0.39 0.43 0.39 0.43 0.47 0.51 0.56 0.61 0.63 0.66 0.72 0.73 0.72 0.72 0.74 0.75 0.75 0.77 0.78 0.80 0.82 0.85 0.88 0.89 0.91 0.92 0.94 0.97 0.99 1.00 1.03 1.04 1.02 1.11 1.14 1.16 1.16 1.19 1.20 1.26 1.29 1.26 1.24 1.26 1.22 1.22 1.25 1.25 1.23 1.22 1.19 1.19 1.19 1.18 1.19 1.19 1.15 1.08 0.98 0.90 0.87 0.86 0.83
0.48 0.40 0.43 0.41 0.39 0.40 0.43 0.46 0.46 0.43 0.42 0.38 0.40 0.40 0.40 0.40 0.39 0.39 0.39 0.39 0.41 0.38 0.42 0.42 0.37 0.36 0.47 0.54 0.55 0.60 0.64 0.66 0.67 0.67 0.69 0.71 0.72 0.72 0.72 0.73 0.75 0.76 0.79 0.82 0.83 0.85 0.88 0.89 0.92 0.95 0.97 0.97 0.98 1.00 1.01 1.03 1.05 1.08 1.12 1.12 1.16 1.21 1.27 1.29 1.26 1.25 1.24 1.23 1.23 1.24 1.25 1.24 1.22 1.21 1.18 1.18 1.17 1.21 1.19 1.16 1.14 1.06 0.93 0.86 0.87 0.85
0.47 0.42 0.49 0.45 0.35 0.34 0.42 0.42 0.43 0.45 0.44 0.40 0.39 0.40 0.39 0.39 0.36 0.38 0.36 0.41 0.39 0.37 0.40 0.40 0.35 0.36 0.48 0.56 0.58 0.59 0.61 0.61 0.61 0.63 0.67 0.70 0.72 0.71 0.70 0.71 0.73 0.75 0.77 0.79 0.82 0.85 0.88 0.90 0.92 0.94 0.95 0.96 0.97 0.99 1.02 1.03 1.06 1.07 1.06 1.10 1.11 1.11 1.19 1.22 1.22 1.22 1.22 1.22 1.23 1.23 1.21 1.22 1.22 1.23 1.20 1.20 1.16 1.18 1.21 1.17 1.14 1.10 1.02 0.88 0.89 0.90
0.47 0.43 0.41 0.41 0.31 0.32 0.42 0.43 0.42 0.43 0.41 0.34 0.35 0.40 0.42 0.42 0.43 0.44 0.45 0.46 0.46 0.47 0.39 0.35 0.36 0.46 0.51 0.56 0.55 0.56 0.58 0.61 0.62 0.64 0.66 0.70 0.71 0.71 0.71 0.69 0.71 0.76 0.77 0.79 0.81 0.85 0.89 0.91 0.92 0.93 0.93 0.93 0.93 0.94 0.97 1.00 1.01 1.01 1.04 1.06 1.09 1.15 1.14 1.13 1.14 1.16 1.17 1.18 1.19 1.20 1.20 1.18 1.16 1.17 1.17 1.17 1.15 1.18 1.20 1.18 1.12 1.03 0.94 0.89 0.92 0.95
0.48 0.44 0.39 0.42 0.30 0.35 0.39 0.41 0.42 0.34 0.26 0.28 0.46 0.51 0.49 0.43 0.45 0.41 0.39 0.43 0.48 0.50 0.45 0.49 0.48 0.52 0.54 0.55 0.55 0.56 0.57 0.58 0.62 0.68 0.72 0.71 0.70 0.71 0.74 0.76 0.76 0.76 0.78 0.80 0.82 0.83 0.87 0.90 0.91 0.91 0.92 0.94 0.94 0.93 0.93 0.96 0.97 0.99 1.01 1.01 1.04 1.05 1.06 1.08 1.09 1.11 1.13 1.14 1.14 1.16 1.15 1.14 1.16 1.17 1.19 1.19 1.20 1.19 1.16 1.13 1.10 1.09 1.04 0.99 0.95 0.93
0.44 0.47 0.39 0.42 0.35 0.31 0.38 0.38 0.31 0.24 0.28 0.45 0.55 0.56 0.55 0.53 0.52 0.48 0.47 0.49 0.50 0.52 0.50 0.48 0.50 0.52 0.55 0.57 0.58 0.59 0.61 0.63 0.67 0.68 0.72 0.74 0.73 0.73 0.73 0.74 0.75 0.75 0.76 0.78 0.80 0.82 0.86 0.89 0.91 0.90 0.91 0.92 0.93 0.93 0.92 0.91 0.91 0.93 0.94 0.97 0.97 0.99 0.99 0.99 0.99 1.01 1.03 1.03 1.02 1.05 1.08 1.12 1.12 1.15 1.17 1.18 1.19 1.19 1.17 1.13 1.12 1.08 1.06 1.02 0.96 0.93
0.43 0.42 0.42 0.38 0.38 0.36 0.32 0.30 0.21 0.25 0.42 0.50 0.53 0.56 0.59 0.57 0.55 0.51 0.47 0.51 0.53 0.53 0.53 0.49 0.51 0.54 0.56 0.57 0.59 0.62 0.63 0.64 0.69 0.70 0.73 0.75 0.76 0.74 0.73 0.73 0.74 0.75 0.77 0.80 0.79 0.81 0.83 0.85 0.86 0.87 0.87 0.90 0.89 0.90 0.90 0.89 0.89 0.89 0.88 0.91 0.91 0.91 0.93 0.94 0.94 0.93 0.94 0.96 0.98 0.98 1.00 1.03 1.05 1.07 1.10 1.12 1.15 1.15 1.15 1.13 1.10 1.06 1.06 1.02 0.98 0.97
0.49 0.48 0.41 0.34 0.37 0.27 0.30 0.29 0.29 0.38 0.37 0.42 0.43 0.49 0.52 0.48 0.49 0.46 0.38 0.45 0.55 0.58 0.56 0.54 0.54 0.56 0.57 0.59 0.61 0.63 0.64 0.64 0.64 0.65 0.71 0.74 0.76 0.76 0.75 0.74 0.75 0.76 0.78 0.80 0.80 0.80 0.84 0.85 0.85 0.86 0.87 0.88 0.88 0.87 0.86 0.86 0.88 0.88 0.87 0.86 0.85 0.86 0.87 0.88 0.88 0.88 0.90 0.92 0.94 0.96 0.99 1.01 1.00 1.01 1.02 1.05 1.08 1.10 1.12 1.14 1.14 1.13 1.11 1.06 1.03 1.01
0.49 0.42 0.45 0.34 0.31 0.33 0.28 0.23 0.25 0.26 0.23 0.32 0.43 0.51 0.58 0.59 0.59 0.58 0.51 0.45 0.57 0.60 0.62 0.58 0.56 0.57 0.58 0.59 0.60 0.62 0.62 0.56 0.52 0.55 0.66 0.72 0.75 0.74 0.77 0.76 0.75 0.77 0.78 0.78 0.79 0.79 0.79 0.81 0.82 0.84 0.85 0.84 0.84 0.84 0.86 0.85 0.83 0.83 0.83 0.82 0.82 0.81 0.82 0.84 0.83 0.85 0.87 0.88 0.89 0.91 0.95 0.96 0.97 0.97 0.99 1.01 1.01 1.03 1.05 1.08 1.12 1.13 1.16 1.13 1.10 1.05
0.46 0.48 0.44 0.34 0.33 0.30 0.29 0.24 0.23 0.23 0.28 0.39 0.43 0.49 0.55 0.60 0.60 0.60 0.49 0.40 0.56 0.61 0.63 0.61 0.58 0.59 0.59 0.59 0.59 0.62 0.56 0.47 0.48 0.55 0.65 0.69 0.72 0.75 0.75 0.75 0.75 0.75 0.76 0.78 0.79 0.78 0.79 0.80 0.81 0.81 0.80 0.81 0.80 0.82 0.84 0.85 0.85 0.83 0.82 0.82 0.81 0.80 0.80 0.80 0.80 0.82 0.82 0.83 0.85 0.87 0.89 0.91 0.93 0.95 0.96 0.96 0.97 0.98 0.98 1.00 1.03 1.03 1.03 1.04 1.06 1.05
0.39 0.38 0.39 0.33 0.31 0.30 0.28 0.26 0.25 0.29 0.28 0.39 0.45 0.50 0.55 0.61 0.60 0.52 0.30 0.34 0.55 0.60 0.63 0.62 0.60 0.60 0.60 0.61 0.62 0.61 0.55 0.49 0.50 0.58 0.67 0.71 0.73 0.74 0.73 0.73 0.73 0.74 0.74 0.76 0.77 0.77 0.77 0.78 0.78 0.77 0.77 0.78 0.78 0.80 0.80 0.81 0.80 0.81 0.81 0.81 0.81 0.80 0.78 0.78 0.79 0.80 0.81 0.82 0.84 0.85 0.86 0.87 0.86 0.88 0.89 0.90 0.93 0.96 0.96 0.96 0.95 0.96 0.97 0.97 0.97 0.97
0.31 0.33 0.35 0.29 0.32 0.31 0.29 0.29 0.30 0.31 0.41 0.46 0.47 0.52 0.57 0.61 0.53 0.34 0.27 0.42 0.58 0.60 0.62 0.62 0.62 0.62 0.63 0.61 0.62 0.55 0.61 0.64 0.65 0.68 0.69 0.70 0.69 0.69 0.71 0.72 0.72 0.73 0.73 0.75 0.76 0.77 0.77 0.78 0.77 0.76 0.76 0.76 0.77 0.79 0.80 0.80 0.78 0.77 0.77 0.78 0.77 0.76 0.76 0.77 0.78 0.78 0.79 0.79 0.78 0.79 0.81 0.84 0.85 0.85 0.86 0.87 0.88 0.89 0.90 0.91 0.92 0.93 0.93 0.93 0.95 0.94
0.31 0.34 0.34 0.35 0.28 0.29 0.28 0.26 0.27 0.31 0.41 0.49 0.52 0.55 0.59 0.49 0.32 0.30 0.48 0.62 0.60 0.58 0.61 0.62 0.61 0.63 0.64 0.63 0.63 0.62 0.63 0.66 0.67 0.68 0.67 0.66 0.65 0.65 0.65 0.66 0.66 0.67 0.69 0.72 0.74 0.74 0.74 0.75 0.76 0.75 0.75 0.77 0.77 0.77 0.76 0.76 0.76 0.76 0.76 0.75 0.74 0.75 0.77 0.76 0.76 0.76 0.76 0.75 0.75 0.76 0.77 0.77 0.78 0.80 0.81 0.82 0.83 0.82 0.83 0.86 0.87 0.86 0.87 0.86 0.86 0.85
0.29 0.29 0.30 0.30 0.32 0.31 0.29 0.29 0.26 0.20 0.39 0.50 0.51 0.52 0.56 0.40 0.42 0.53 0.59 0.62 0.62 0.60 0.60 0.61 0.62 0.63 0.65 0.62 0.65 0.64 0.65 0.65 0.65 0.65 0.65 0.65 0.64 0.62 0.62 0.63 0.62 0.63 0.63 0.63 0.63 0.66 0.68 0.69 0.69 0.70 0.70 0.72 0.74 0.75 0.74 0.72 0.72 0.73 0.74 0.73 0.74 0.75 0.75 0.76 0.76 0.76 0.76 0.76 0.75 0.75 0.75 0.76 0.75 0.76 0.77 0.77 0.78 0.77 0.77 0.78 0.78 0.79 0.80 0.80 0.79 0.78
0.38 0.31 0.32 0.33 0.36 0.26 0.27 0.25 0.26 0.35 0.47 0.52 0.49 0.40 0.50 0.52 0.59 0.60 0.60 0.57 0.61 0.61 0.60 0.60 0.62 0.64 0.64 0.63 0.63 0.63 0.64 0.63 0.63 0.63 0.62 0.62 0.63 0.63 0.63 0.62 0.62 0.62 0.62 0.62 0.63 0.63 0.62 0.61 0.62 0.64 0.67 0.68 0.68 0.67 0.67 0.67 0.65 0.66 0.67 0.68 0.70 0.71 0.71 0.72 0.73 0.73 0.73 0.74 0.75 0.76 0.76 0.76 0.76 0.75 0.75 0.74 0.75 0.74 0.75 0.74 0.74 0.73 0.73 0.74 0.74 0.73
0.39 0.36 0.38 0.30 0.39 0.32 0.31 0.34 0.43 0.48 0.50 0.53 0.53 0.52 0.56 0.59 0.63 0.65 0.63 0.60 0.58 0.58 0.61 0.58 0.58 0.61 0.64 0.64 0.62 0.61 0.59 0.58 0.58 0.59 0.58 0.58 0.59 0.59 0.59 0.60 0.60 0.59 0.60 0.60 0.61 0.62 0.61 0.60 0.59 0.59 0.60 0.61 0.62 0.62 0.61 0.61 0.59 0.59 0.58 0.61 0.65 0.65 0.66 0.66 0.66 0.67 0.66 0.67 0.68 0.70 0.73 0.74 0.75 0.75 0.75 0.75 0.74 0.71 0.70 0.70 0.71 0.69 0.69 0.69 0.68 0.68
0.46 0.45 0.47 0.40 0.38 0.44 0.46 0.46 0.48 0.47 0.47 0.50 0.53 0.56 0.56 0.58 0.62 0.64 0.62 0.59 0.59 0.59 0.59 0.56 0.57 0.59 0.60 0.60 0.57 0.56 0.55 0.55 0.55 0.55 0.56 0.56 0.56 0.57 0.57 0.57 0.58 0.57 0.57 0.57 0.57 0.57 0.57 0.57 0.56 0.56 0.55 0.55 0.56 0.56 0.56 0.56 0.55 0.53 0.53 0.55 0.56 0.57 0.57 0.58 0.58 0.57 0.57 0.58 0.59 0.61 0.62 0.63 0.65 0.66 0.68 0.67 0.68 0.67 0.67 0.66 0.65 0.65 0.65 0.66 0.65 0.64
0.43 0.45 0.42 0.35 0.41 0.37 0.30 0.43 0.42 0.42 0.46 0.47 0.49 0.54 0.58 0.60 0.60 0.62 0.60 0.60 0.59 0.57 0.56 0.57 0.56 0.56 0.55 0.55 0.54 0.53 0.52 0.53 0.53 0.54 0.54 0.55 0.55 0.55 0.56 0.55 0.56 0.56 0.55 0.53 0.54 0.55 0.54 0.53 0.52 0.52 0.52 0.51 0.53 0.52 0.52 0.51 0.51 0.50 0.50 0.50 0.51 0.52 0.52 0.51 0.50 0.49 0.50 0.50 0.51 0.51 0.51 0.52 0.52 0.52 0.53 0.55 0.56 0.56 0.56 0.56 0.55 0.54 0.54 0.55 0.55 0.55
0.34 0.46 0.38 0.37 0.36 0.33 0.33 0.41 0.45 0.47 0.48 0.49 0.49 0.49 0.51 0.54 0.58 0.60 0.61 0.62 0.60 0.58 0.57 0.55 0.53 0.51 0.51 0.49 0.49 0.49 0.48 0.49 0.49 0.50 0.51 0.52 0.52 0.53 0.53 0.53 0.53 0.52 0.52 0.53 0.53 0.53 0.52 0.52 0.51 0.50 0.50 0.50 0.51 0.51 0.50 0.49 0.48 0.48 0.48 0.47 0.47 0.47 0.46 0.45 0.45 0.44 0.44 0.45 0.45 0.44 0.43 0.42 0.42 0.43 0.43 0.44 0.45 0.44 0.44 0.45 0.45 0.43 0.44 0.44 0.44 0.45
0.40 0.43 0.32 0.38 0.34 0.38 0.42 0.43 0.44 0.45 0.46 0.48 0.50 0.52 0.53 0.55 0.56 0.57 0.58 0.58 0.56 0.53 0.52 0.52 0.51 0.49 0.48 0.47 0.48 0.48 0.48 0.49 0.50 0.50 0.50 0.50 0.51 0.52 0.52 0.52 0.51 0.51 0.51 0.50 0.51 0.52 0.51 0.51 0.51 0.50 0.50 0.49 0.50 0.50 0.49 0.48 0.47 0.47 0.47 0.46 0.46 0.46 0.44 0.43 0.43 0.45 0.44 0.44 0.42 0.40 0.40 0.39 0.39 0.39 0.38 0.36 0.35 0.35 0.36 0.37 0.38 0.38 0.36 0.38 0.38 0.36
0.39 0.33 0.39 0.38 0.32 0.32 0.34 0.38 0.43 0.33 0.33 0.40 0.46 0.51 0.53 0.56 0.56 0.55 0.55 0.53 0.52 0.52 0.52 0.51 0.51 0.52 0.52 0.51 0.49 0.49 0.48 0.49 0.50 0.50 0.49 0.50 0.50 0.50 0.50 0.51 0.51 0.49 0.48 0.49 0.50 0.51 0.52 0.52 0.52 0.51 0.50 0.49 0.49 0.48 0.47 0.46 0.46 0.47 0.46 0.46 0.45 0.44 0.42 0.42 0.43 0.43 0.41 0.40 0.40 0.39 0.38 0.37 0.37 0.37 0.37 0.37 0.34 0.33 0.32 0.34 0.34 0.35 0.34 0.33 0.34 0.35
0.34 0.36 0.37 0.31 0.30 0.29 0.38 0.41 0.43 0.43 0.42 0.43 0.44 0.46 0.48 0.52 0.54 0.52 0.52 0.52 0.53 0.55 0.57 0.56 0.55 0.54 0.53 0.52 0.52 0.49 0.48 0.48 0.49 0.49 0.48 0.49 0.49 0.50 0.50 0.49 0.48 0.47 0.46 0.47 0.48 0.48 0.50 0.51 0.51 0.49 0.48 0.48 0.48 0.47 0.46 0.45 0.46 0.45 0.44 0.44 0.43 0.43 0.43 0.43 0.41 0.39 0.37 0.35 0.34 0.35 0.35 0.35 0.34 0.34 0.34 0.34 0.34 0.34 0.32 0.30 0.30 0.33 0.33 0.32 0.32 0.32
Wind_Speed
17 17 18 18 18 19 19 19 17 15 13 14 14 14 15 15 14 13 14 14 14 16 17 18 18 18 18 17 15 15 17 18 19 19 19 20 20 20 20 19 20 20 19 18 17 16 14 14 13 12 11 10 10 10 10 10 12 13 14 15 15 15 14 14 14 14 13 13 13 12 13 12 12 12 12 12 12 12 12 11 11 11 11 10 10 10
17 18 19 19 19 18 18 19 17 16 16 16 15 15 16 16 15 14 14 15 14 16 17 18 19 19 19 19 17 16 18 19 20 20 20 20 20 20 20 20 20 20 19 19 18 17 16 15 14 13 12 11 11 10 11 11 12 13 13 14 15 14 14 13 13 14 14 14 13 13 12 12 12 13 12 12 12 12 12 12 11 11 10 10 10 10
17 19 19 19 18 17 18 18 18 17 16 16 16 16 16 15 14 14 15 15 15 15 16 17 18 19 19 20 18 18 19 19 20 21 21 21 21 20 20 20 20 20 20 19 19 18 17 17 16 14 13 12 11 10 11 11 12 12 13 13 13 14 14 13 13 13 14 14 13 13 13 12 12 12 12 12 12 12 12 12 12 11 11 10 10 10
16 18 18 18 18 19 18 18 17 16 16 16 16 16 16 14 14 14 14 14 15 16 16 17 17 18 19 19 20 19 19 19 19 21 22 22 21 21 20 20 20 21 21 20 19 19 18 18 17 16 14 13 11 10 11 12 12 12 13 13 13 13 14 13 13 14 14 14 13 13 13 13 12 12 12 12 12 12 12 12 12 11 11 11 10 10
16 14 15 17 19 19 18 18 18 17 16 17 18 18 16 15 15 15 15 15 16 17 18 17 17 18 19 20 20 18 18 19 19 20 21 22 22 21 21 20 20 21 21 21 20 19 18 18 17 16 15 14 12 11 11 12 12 12 13 13 13 14 13 13 14 14 13 13 13 13 13 12 12 12 13 13 13 13 12 12 12 11 11 11 10 10
16 14 15 17 18 19 18 18 18 18 17 17 18 18 18 17 17 18 17 16 16 16 16 16 16 16 16 17 18 16 17 18 18 19 21 22 22 22 22 21 21 21 21 21 21 19 18 18 18 17 17 15 13 12 12 12 12 12 12 13 13 14 13 13 14 14 13 14 14 13 13 13 13 13 13 13 13 13 13 12 12 11 11 10 10 9
16 14 16 17 17 18 18 18 18 18 17 16 15 16 18 18 18 18 17 15 15 13 12 14 15 13 12 14 15 15 16 17 17 18 20 21 22 23 23 22 21 22 22 21 21 19 18 18 18 18 17 16 14 14 13 12 12 12 12 12 13 14 13 13 14 14 13 13 14 14 14 13 13 13 13 13 13 12 12 12 12 11 11 10 9 9
16 16 17 17 16 17 17 17 17 18 17 15 13 14 16 16 17 16 16 16 14 12 12 14 15 14 14 13 13 14 16 16 16 17 18 19 21 22 23 23 23 23 22 21 20 19 19 18 18 18 18 17 15 15 14 13 13 12 12 12 13 13 13 14 15 14 13 13 14 15 14 13 12 12 12 12 12 12 12 12 12 11 11 10 10 9
16 18 18 18 18 17 17 16 15 17 18 15 12 13 14 14 15 15 15 15 14 13 14 15 14 14 15 14 13 14 16 15 14 15 16 18 20 21 23 23 23 23 22 21 19 18 18 18 18 18 18 17 16 15 15 14 13 13 13 13 13 14 14 14 15 14 14 14 14 14 13 12 12 11 12 12 12 12 12 12 12 11 11 10 10 9
14 16 17 19 19 18 18 17 16 17 17 14 13 13 13 13 13 13 14 14 13 14 15 14 14 14 14 13 12 13 14 13 12 14 14 16 18 20 22 23 23 22 22 21 19 18 18 18 18 18 17 17 16 15 14 13 13 13 13 13 13 14 15 15 15 15 14 14 14 13 12 12 12 11 12 12 12 12 12 12 12 11 11 10 10 9
13 14 15 18 18 17 17 17 16 17 16 13 13 13 12 12 12 12 13 13 13 14 15 14 14 15 14 11 10 10 11 11 12 13 12 13 16 19 20 21 21 22 21 19 18 18 18 18 18 18 17 17 15 15 14 13 13 13 12 13 14 14 15 15 15 15 15 15 14 13 12 12 12 12 12 12 13 13 13 12 12 12 11 10 9 9
15 15 15 16 16 16 15 15 15 16 15 14 13 13 12 11 11 12 12 12 13 13 12 12 13 15 15 11 9 9 10 11 12 12 11 12 14 16 17 18 20 21 20 19 19 19 18 18 18 18 18 17 16 15 15 14 13 13 13 13 14 14 15 15 15 15 15 15 14 14 13 13 13 13 13 13 13 13 13 13 12 11 11 10 9 9
17 17 16 16 16 16 15 14 14 15 15 14 14 13 13 12 11 12 12 12 13 11 9 10 12 14 15 11 9 9 9 10 11 10 10 10 12 14 16 17 19 19 19 19 19 19 18 18 18 19 19 18 16 16 15 14 14 13 13 14 14 15 15 15 15 15 15 15 15 15 14 14 14 14 14 14 14 14 13 13 12 11 11 10 9 9
16 17 18 18 16 17 18 15 14 15 16 16 15 14 14 13 12 13 12 12 12 11 9 10 12 14 15 11 9 10 10 10 9 8 9 9 10 12 14 16 17 17 18 19 19 19 18 17 17 18 19 18 16 16 16 15 14 14 13 14 15 16 16 16 16 16 16 16 16 15 15 15 15 15 14 14 14 14 14 13 13 12 11 10 10 9
16 15 17 18 17 17 19 18 15 14 15 17 16 15 15 14 12 12 11 11 12 10 9 10 11 13 13 10 9 10 9 8 8 8 8 9 10 11 13 15 16 16 17 17 18 18 17 17 17 17 18 18 17 16 16 15 15 14 14 15 15 16 16 16 16 16 16 16 16 16 15 15 15 15 15 14 14 14 14 13 13 12 11 11 10 9
16 14 14 16 15 16 19 20 18 15 14 15 15 15 15 14 13 11 9 8 9 9 9 10 11 10 10 9 9 9 8 7 7 8 8 9 10 12 13 14 15 15 16 16 17 17 17 17 17 17 17 17 18 17 16 16 15 15 15 15 16 16 16 17 17 17 17 17 17 17 16 16 16 15 15 14 14 14 14 14 13 12 11 11 11 10
15 14 13 14 15 17 18 18 20 18 14 13 15 16 14 13 13 12 10 8 9 11 10 10 11 10 9 10 9 8 8 8 8 8 9 10 11 11 12 13 14 14 15 15 16 16 17 17 17 17 16 17 18 18 17 16 16 15 15 16 17 17 16 17 17 17 17 17 17 17 16 16 16 15 15 15 15 15 15 14 13 13 12 12 11 11
14 12 12 14 16 17 16 16 19 19 15 13 13 14 13 12 13 12 11 9 10 12 10 10 12 11 10 10 10 9 9 8 9 9 9 10 11 11 11 12 13 14 14 14 15 15 16 16 17 17 17 17 18 18 17 17 16 16 16 16 17 17 17 17 18 18 17 17 17 17 17 17 16 16 15 15 15 15 15 14 14 13 13 12 12 12
15 13 12 13 15 15 16 16 17 18 18 15 12 11 12 12 13 13 12 11 10 11 10 10 11 11 11 10 10 10 9 9 10 11 10 9 10 10 10 10 11 12 13 13 14 14 14 15 16 16 17 17 18 17 18 17 16 16 16 17 18 18 17 18 18 18 18 18 17 17 17 17 17 16 15 15 15 15 15 14 14 13 13 13 13 13
15 15 12 12 13 14 16 17 17 17 18 17 14 13 13 13 12 11 12 11 11 10 10 9 10 9 8 9 10 10 10 10 10 11 10 9 9 10 10 10 11 11 12 13 13 13 13 14 15 16 16 17 18 17 17 17 17 17 17 18 18 18 18 18 19 19 19 18 17 17 17 18 17 17 16 16 16 16 16 15 14 14 13 13 13 13
15 15 13 12 13 15 16 17 17 15 16 17 17 16 14 13 13 12 11 12 11 10 9 9 9 7 6 8 10 10 10 10 10 10 10 9 9 10 10 10 11 12 12 12 12 12 12 13 14 14 15 16 17 17 17 18 18 18 18 18 18 18 18 18 19 20 19 18 18 17 18 18 17 17 17 17 17 17 16 16 15 14 14 14 14 14
16 16 15 13 14 15 15 14 14 14 14 15 16 16 15 15 14 13 13 12 12 11 10 10 9 6 6 7 9 11 12 11 10 10 10 10 10 10 10 9 10 10 11 11 11 11 12 13 13 14 14 15 16 17 18 18 18 18 19 19 18 18 18 18 19 20 19 19 18 18 18 18 17 17 17 17 17 17 17 16 15 15 15 15 15 14
15 15 16 16 15 14 13 13 14 14 14 15 15 15 15 15 15 15 13 11 12 13 11 11 10 7 6 7 8 9 10 10 11 10 10 9 9 9 9 8 9 9 10 11 11 11 12 13 14 13 13 14 15 16 17 18 19 18 19 19 19 19 19 19 19 20 20 19 19 19 18 18 18 18 17 17 17 17 17 16 16 16 16 15 15 15
15 16 17 17 16 15 13 14 15 15 15 16 16 15 15 15 15 15 13 10 11 12 12 12 12 9 7 7 7 7 7 8 9 9 10 9 8 8 8 8 9 10 10 10 10 11 12 13 13 13 13 14 15 16 17 18 18 18 18 19 19 19 19 20 20 20 20 20 19 19 19 18 18 18 18 18 17 17 16 16 16 16 16 16 15 15
16 17 17 17 16 16 16 16 16 16 17 16 15 15 15 15 15 15 14 13 13 13 12 12 11 8 8 8 7 7 7 6 7 7 8 9 9 8 8 9 10 9 9 9 9 10 11 11 12 12 13 13 14 16 18 17 17 17 18 19 19 19 19 19 20 21 21 20 20 20 19 19 19 19 18 18 18 17 17 16 17 17 17 17 16 15
17 16 17 18 17 17 17 17 16 16 16 16 15 15 14 15 16 15 15 15 15 14 14 14 10 8 8 8 8 8 7 7 7 7 8 8 8 8 9 9 10 9 7 7 8 10 10 10 10 11 11 12 13 15 17 18 18 18 19 19 19 19 19 19 19 20 21 21 20 21 20 19 19 18 18 17 17 17 17 17 17 17 17 17 16 16
17 16 17 17 16 15 14 13 14 15 15 15 15 15 14 14 15 16 16 16 15 14 14 14 11 10 10 9 8 8 8 8 8 8 8 8 8 9 9 9 9 8 7 6 7 8 9 9 9 9 9 9 10 11 14 17 18 18 18 18 18 18 19 19 20 20 20 20 19 20 20 19 18 18 17 17 16 16 16 17 18 17 17 17 17 16
17 17 17 16 15 13 12 11 12 14 15 15 14 15 14 14 15 17 18 15 14 14 14 13 12 12 12 11 9 8 9 8 8 8 8 8 8 8 9 8 8 7 7 7 6 6 7 7 8 8 8 8 8 9 10 12 15 16 17 17 17 18 19 20 21 21 20 19 18 18 18 18 19 19 18 18 17 16 16 16 17 17 17 17 17 17
18 17 16 16 15 14 13 13 13 13 13 13 14 14 14 14 15 16 17 14 14 15 13 12 13 12 11 11 10 9 9 8 8 8 8 9 8 8 8 7 6 6 6 6 6 6 6 6 6 7 8 7 7 7 8 9 11 13 14 14 15 16 17 19 20 20 19 18 18 18 18 18 19 19 19 19 19 18 17 17 17 16 16 17 17 16
17 17 17 17 15 15 15 15 14 15 14 13 13 13 13 14 14 14 15 14 15 14 13 12 11 10 10 10 10 9 9 9 8 8 8 8 8 8 7 6 6 5 5 5 5 6 5 5 5 6 6 6 5 5 6 7 8 10 11 11 13 14 15 17 18 18 18 17 17 18 18 18 19 19 19 20 20 20 19 18 18 17 17 17 17 16
15 15 16 17 15 14 15 16 16 16 15 14 13 13 13 14 14 14 14 15 14 13 12 12 11 10 11 11 10 10 10 9 9 8 8 7 7 8 7 6 6 5 5 5 5 5 5 5 5 5 4 4 4 4 4 5 6 7 7 8 9 10 13 15 16 17 16 16 16 17 17 18 18 18 19 19 20 20 20 19 19 18 18 18 17 17
14 14 15 16 15 14 13 14 15 16 16 15 13 13 13 14 14 14 14 15 15 14 14 14 14 13 13 12 11 11 10 10 9 8 8 7 7 7 7 6 5 5 4 4 4 4 5 4 5 5 4 4 4 4 4 4 5 5 5 5 6 7 9 11 13 14 14 14 15 16 16 17 17 16 17 17 19 20 21 20 20 19 19 18 18 18
13 13 14 15 14 14 13 12 12 13 15 15 14 14 14 15 15 14 14 14 14 15 15 14 14 14 14 13 12 10 9 9 9 8 8 8 7 7 6 6 5 5 4 4 4 4 4 4 4 4 4 4 4 4 4 4 4 4 5 5 6 6 7 8 10 11 12 12 13 14 15 15 16 16 15 16 17 18 18 19 20 21 20 19 19 20
14 14 14 13 12 12 13 13 11 12 14 14 14 14 14 14 15 14 14 13 13 14 14 13 13 14 15 14 13 12 10 9 8 8 9 8 8 8 8 7 6 5 5 4 4 5 5 4 4 4 4 4 4 5 5 5 5 5 5 5 5 6 6 7 8 9 9 10 10 11 12 13 14 14 15 15 15 15 15 15 18 19 19 19 19 19
15 15 14 12 11 10 12 14 13 11 11 11 12 13 13 13 14 14 13 13 13 14 14 13 14 14 14 14 13 12 11 9 8 8 8 9 9 9 9 7 6 5 5 5 5 6 6 6 5 4 4 4 4 5 5 5 5 5 5 5 5 5 5 6 6 7 7 8 8 9 10 10 11 12 12 13 14 14 14 13 15 16 17 17 17 18
12 13 13 11 10 10 11 12 11 9 8 9 11 11 12 14 14 14 14 13 13 15 15 15 14 14 14 14 13 13 12 10 9 8 8 9 9 9 9 8 7 6 6 6 6 6 6 6 6 5 5 5 5 5 5 5 5 5 5 5 5 5 5 5 5 5 5 6 6 7 8 9 9 10 11 12 12 13 13 13 13 15 15 16 16 17
11 11 12 11 11 11 10 9 9 9 8 7 8 9 11 13 14 15 15 14 14 15 16 16 15 15 16 15 14 15 14 11 10 9 9 10 10 9 9 8 7 7 7 7 6 6 6 6 6 6 6 6 6 5 5 6 6 6 6 5 5 5 5 5 5 4 5 5 5 6 7 7 8 8 9 10 11 12 12 13 13 14 14 15 15 15
13 10 10 11 12 12 10 9 10 11 10 7 6 6 8 10 12 13 14 14 14 15 16 16 15 16 17 17 16 17 16 13 12 12 11 11 11 10 10 9 8 8 9 9 8 7 7 7 6 6 6 6 5 5 6 6 6 6 6 6 6 6 6 5 5 5 5 5 5 5 6 6 7 7 8 9 10 11 12 12 13 13 13 14 14 14
13 12 11 11 11 12 12 12 11 10 9 9 7 6 7 8 10 11 12 12 12 13 15 16 16 16 18 18 17 18 17 16 15 14 13 13 12 12 12 11 9 9 10 9 9 9 8 8 8 8 8 7 6 6 6 6 6 6 6 6 6 6 6 6 5 5 5 5 5 6 6 6 6 7 7 8 9 10 11 11 12 13 13 13 13 13
12 12 11 11 11 12 13 11 10 9 9 9 8 8 7 7 9 10 10 9 10 12 13 14 14 15 16 16 16 16 16 16 16 16 15 14 13 13 12 11 10 10 10 10 10 9 9 9 9 9 9 8 8 8 8 7 7 7 7 7 7 6 6 6 6 6 6 6 6 6 7 7 7 7 7 8 9 9 10 11 12 13 13 13 14 14
10 10 11 11 11 11 12 11 9 9 10 9 9 9 8 8 9 9 8 8 10 11 12 12 12 13 14 14 14 14 14 15 15 15 15 14 14 13 12 11 10 10 10 10 10 10 9 9 9 8 8 8 9 9 9 9 9 8 8 8 8 7 8 8 7 7 7 7 7 7 7 8 8 8 8 9 9 10 10 11 11 12 12 13 13 14
9 8 9 9 8 9 10 10 10 9 9 9 10 10 9 9 9 8 7 9 10 10 10 10 10 12 12 12 12 13 13 14 15 15 14 13 13 13 12 12 11 10 10 10 10 10 10 10 9 8 8 8 8 8 9 9 9 9 9 9 9 9 9 9 9 9 9 8 8 9 9 9 9 9 10 10 10 10 11 11 12 12 13 13 13 14
8 8 8 8 7 7 7 8 9 9 8 8 10 10 9 7 8 8 8 10 10 9 10 10 9 10 12 12 11 12 13 14 14 14 13 13 12 12 12 12 11 11 11 10 10 10 10 10 9 9 9 8 8 8 9 9 10 10 10 10 10 10 10 9 9 9 9 9 9 10 10 10 10 11 11 11 11 11 11 12 13 13 14 15 15 16
8 8 9 8 7 7 6 6 7 7 7 7 8 9 9 7 8 9 10 10 10 9 10 9 9 10 12 12 12 13 13 13 13 13 13 12 12 11 11 11 11 11 11 10 10 10 10 10 9 9 9 9 9 9 10 10 10 10 10 10 10 10 9 9 9 9 9 10 10 10 10 11 11 11 12 12 13 13 13 14 15 15 16 17 17 18
8 8 8 7 6 6 6 6 6 6 6 7 7 8 8 8 8 9 9 10 9 9 10 10 10 11 12 12 13 13 13 13 13 13 13 12 12 11 11 11 11 10 10 10 10 10 10 10 10 10 10 10 10 9 9 9 10 10 10 10 10 10 10 10 10 10 11 11 11 11 12 12 12 13 13 14 14 15 15 16 17 18 18 19 19 20
8 8 7 7 8 7 5 5 5 6 6 7 7 8 7 7 9 9 9 9 9 9 10 10 11 12 12 12 13 13 13 13 13 13 13 13 12 12 11 11 11 11 10 10 10 10 10 10 10 10 10 10 10 10 10 10 10 10 10 11 11 11 11 11 11 11 12 12 12 13 13 14 14 14 15 15 16 16 17 18 18 19 20 20 21 21
7 7 6 7 8 7 5 3 4 5 5 6 8 8 7 7 9 10 10 10 10 10 10 11 11 12 12 12 13 13 13 13 13 13 13 13 12 12 12 11 11 11 10 10 10 11 11 11 10 10 10 10 10 10 11 11 11 11 12 12 12 12 12 12 12 13 13 13 14 14 14 15 15 16 16 16 17 17 18 18 19 19 20 21 22 22
6 6 6 6 7 6 5 4 4 4 4 5 7 8 8 7 8 9 10 10 10 10 11 12 12 12 12 12 13 13 13 13 13 13 13 13 12 12 12 12 11 11 11 11 11 11 12 11 11 11 11 11 11 11 12 12 12 13 13 13 13 13 13 14 14 14 14 14 14 14 15 15 15 16 16 16 17 17 18 18 19 19 20 21 22 23
7 7 7 7 7 6 6 6 5 4 3 3 4 5 7 8 8 9 10 10 10 10 10 11 11 12 12 13 13 13 13 13 13 13 13 13 13 13 13 12 12 12 12 12 12 12 12 12 12 12 12 12 12 13 13 13 13 14 14 14 14 14 14 14 14 14 14 15 15 15 15 15 16 16 16 16 17 17 18 18 19 19 20 21 21 22
6 7 7 7 6 5 5 5 5 4 4 3 4 5 6 7 8 9 10 10 11 11 10 10 10 11 11 12 13 13 13 13 13 13 13 13 13 13 13 13 13 12 12 13 13 13 13 13 13 13 13 13 14 14 14 14 15 15 15 15 15 15 15 15 15 15 15 15 16 16 16 16 16 17 17 18 18 18 18 19 19 20 21 21 21 22
5 5 5 5 5 5 5 5 5 5 5 6 6 6 6 6 7 8 9 10 11 11 11 11 12 12 12 13 13 13 13 13 13 13 12 12 13 13 13 13 13 13 13 14 14 14 14 14 14 14 14 15 15 15 15 15 16 16 16 16 15 15 16 16 16 16 16 16 16 17 17 17 18 18 18 19 19 20 20 20 20 21 21 22 23 23
Wind_Direction
234 237 236 237 239 238 237 239 246 254 254 253 253 253 252 251 251 246 247 252 254 255 253 249 249 248 246 245 244 241 238 238 238 236 234 232 231 231 229 229 229 230 227 225 225 226 227 225 224 228 230 227 227 224 224 224 218 218 220 218 219 223 225 225 223 222 223 220 219 221 222 218 213 211 209 211 214 213 213 214 214 213 214 218 223 226
237 240 238 238 241 241 237 238 245 250 250 252 253 253 252 251 252 247 248 254 253 254 254 251 250 249 247 246 246 243 241 240 238 236 234 233 232 231 230 229 229 231 229 225 225 226 227 227 225 227 230 230 229 227 225 225 221 219 221 219 220 223 227 226 223 222 222 221 220 221 219 212 209 211 211 213 214 214 215 216 217 220 222 224 226 228
239 241 240 238 239 237 237 240 243 246 248 250 250 251 251 251 252 250 249 251 251 253 254 252 251 251 248 247 249 247 244 242 240 237 235 234 233 231 230 228 228 229 228 226 225 225 227 228 227 227 230 229 228 227 226 226 223 220 221 222 221 222 224 225 223 221 221 220 219 219 215 209 209 210 211 212 212 213 215 216 218 221 224 226 229 230
240 243 240 236 235 235 237 240 240 243 246 246 247 248 248 248 250 249 245 245 250 254 255 257 256 254 251 250 251 248 244 242 240 238 237 235 235 233 231 229 227 226 226 226 225 224 227 229 228 227 227 227 227 228 227 225 224 222 223 224 222 222 224 225 222 219 219 217 215 215 213 211 212 211 210 210 211 212 213 214 217 220 223 227 230 230
242 244 238 234 235 235 236 236 237 242 246 245 245 246 250 251 250 252 251 251 256 255 252 256 258 255 251 248 248 244 240 240 238 237 237 236 236 234 232 229 227 225 225 225 225 223 225 226 226 225 225 227 228 228 226 225 225 226 226 226 225 226 226 224 218 214 214 212 210 212 211 211 212 209 208 208 209 211 212 214 217 220 223 226 227 225
243 241 236 235 235 233 234 236 237 241 247 248 244 244 250 253 253 254 253 253 258 254 245 246 254 255 247 244 246 242 239 238 235 235 236 235 235 233 231 228 225 226 225 224 223 222 223 223 223 223 225 227 228 227 225 223 224 226 225 224 225 227 226 221 218 216 212 208 208 209 209 209 208 206 206 208 209 211 213 215 218 220 221 221 220 220
242 235 233 235 233 232 235 239 238 238 246 250 245 244 248 251 251 251 249 247 253 253 241 240 251 257 247 241 242 240 239 237 234 235 237 236 235 233 230 227 224 225 225 223 220 220 221 221 220 220 221 224 225 226 225 223 223 223 221 220 222 225 224 221 220 218 211 207 207 207 207 205 204 204 206 208 209 211 214 216 217 217 216 215 215 215
237 231 231 231 231 232 235 238 236 235 242 248 246 246 248 248 246 246 245 243 248 253 244 239 248 257 254 247 240 239 241 238 237 239 239 237 236 233 229 225 224 223 223 221 217 217 219 218 218 217 218 221 223 224 223 222 223 221 218 218 219 222 221 220 221 220 215 211 208 206 205 204 204 205 206 207 209 211 213 214 213 212 211 211 212 213
231 231 231 229 231 235 236 237 234 231 239 244 244 247 249 247 245 244 242 241 245 250 246 238 241 253 256 248 240 241 241 237 239 243 242 238 235 231 226 223 222 221 221 219 216 215 215 215 216 216 217 220 224 224 221 220 221 220 219 219 219 220 219 219 220 221 220 216 210 205 205 206 207 208 207 206 207 209 209 209 208 208 209 210 212 214
233 235 235 231 234 237 236 237 234 231 237 241 241 245 247 245 243 241 240 239 239 245 248 238 233 246 255 247 239 239 237 237 244 247 245 240 234 228 223 221 219 218 217 217 215 213 213 213 215 215 216 220 224 224 220 218 219 219 221 220 219 219 219 219 220 221 222 220 215 212 211 209 208 207 207 206 205 205 206 206 206 207 210 212 214 216
235 237 239 235 235 237 238 237 234 232 234 236 237 238 238 238 238 239 240 240 239 243 246 236 230 242 253 248 240 237 238 246 252 250 247 241 232 224 219 217 215 213 212 211 211 211 212 213 213 214 215 217 220 220 218 219 220 220 221 220 218 218 218 218 220 222 222 219 217 216 214 209 207 205 204 204 204 204 204 205 206 208 211 213 215 216
232 233 235 234 233 235 236 233 230 230 229 230 232 232 232 231 231 235 235 235 242 244 239 231 232 243 248 246 241 240 244 252 255 252 247 237 224 217 212 209 209 210 209 208 209 211 212 214 213 212 213 213 215 217 217 219 220 221 221 218 216 217 218 219 220 221 220 218 217 216 214 211 209 205 203 204 205 205 205 205 206 209 211 213 214 216
232 233 232 231 230 229 229 226 222 224 224 225 228 227 229 229 226 233 233 232 242 242 230 230 238 245 246 244 244 247 250 254 256 250 239 228 215 208 205 203 203 205 205 205 208 210 211 213 212 210 211 213 216 217 217 219 220 222 221 217 216 217 218 219 219 219 219 218 217 216 215 214 211 208 207 207 207 206 205 205 206 207 209 211 213 214
230 231 230 231 230 226 226 224 217 219 221 222 223 224 229 231 229 233 235 236 241 238 232 237 244 247 246 242 244 249 250 251 251 239 225 216 204 199 199 199 199 202 204 204 207 209 210 210 209 209 211 213 216 216 217 219 220 221 221 218 217 217 217 218 217 218 219 218 216 216 216 214 212 210 209 209 208 206 205 205 206 208 210 211 211 211
229 230 228 227 228 223 223 225 221 221 221 221 223 228 233 235 235 238 241 244 244 239 234 234 242 249 246 238 236 241 240 241 240 225 213 208 200 196 196 197 198 201 204 205 206 207 209 210 209 211 213 214 215 216 217 219 221 222 221 218 217 216 216 217 217 218 218 216 215 214 214 213 211 210 211 211 209 207 205 205 207 209 211 212 210 210
230 236 227 221 225 221 219 223 223 225 225 221 223 230 234 236 238 242 247 251 250 247 237 231 242 250 244 232 225 227 230 228 223 213 204 200 197 195 195 195 197 200 202 204 206 208 210 211 211 212 215 216 216 218 220 220 222 222 220 218 216 216 216 216 217 217 217 215 213 213 213 213 211 211 211 211 208 206 205 205 208 211 213 213 212 214
228 234 223 218 223 221 219 218 217 221 225 220 223 229 231 235 240 241 241 241 247 252 244 236 243 241 230 229 221 218 224 217 210 207 201 196 193 193 194 194 196 199 201 203 206 206 208 210 211 213 217 218 218 221 222 220 222 223 220 218 216 217 217 216 215 215 214 213 213 212 213 212 211 210 210 208 205 204 206 207 210 213 215 214 215 216
229 231 220 218 220 217 217 217 215 219 223 220 224 227 225 232 239 240 240 238 239 246 244 238 243 238 229 230 220 214 219 215 209 206 200 195 192 192 191 191 194 196 197 200 202 203 206 210 214 216 219 220 219 220 220 220 222 222 220 217 216 217 217 215 214 213 213 213 212 211 211 210 209 209 209 206 204 204 207 210 212 216 217 216 215 214
228 229 220 216 215 211 212 216 217 219 222 226 231 228 223 228 232 231 236 240 239 244 244 238 239 240 235 227 215 212 215 214 210 204 199 197 193 190 187 189 192 192 194 198 200 204 209 214 217 218 220 221 220 220 220 220 222 221 219 216 215 216 216 214 213 212 212 212 211 210 209 208 208 208 208 207 205 206 207 210 214 217 218 217 215 212
224 227 222 214 212 209 211 216 219 218 219 225 232 230 227 231 232 230 232 236 240 243 242 236 234 237 236 221 211 212 212 211 209 203 201 201 197 192 188 190 196 196 199 203 205 210 214 217 219 219 221 222 222 222 221 222 222 221 217 214 214 215 214 213 212 211 211 210 209 209 208 208 208 209 209 209 208 207 207 211 216 218 217 217 214 212
220 221 219 211 208 212 214 216 219 219 216 219 225 226 225 227 232 236 235 234 241 245 240 239 235 229 234 228 219 217 214 211 209 205 206 207 204 202 199 199 202 205 208 209 209 214 216 218 220 222 224 224 224 224 223 223 224 222 217 213 214 214 213 212 211 209 209 209 209 209 208 208 209 210 210 210 209 209 209 213 216 217 215 214 213 213
218 217 218 214 211 214 216 215 219 223 221 221 223 224 225 225 227 233 234 230 236 243 243 245 241 226 233 236 223 218 215 212 210 207 208 211 210 211 211 211 210 213 217 217 217 220 220 220 221 224 227 227 226 225 224 224 225 222 217 213 213 214 213 211 209 208 208 209 209 210 210 209 209 209 210 210 210 211 211 213 214 215 214 214 214 215
218 218 219 220 219 217 213 213 218 223 224 225 227 227 227 227 226 230 235 230 229 235 239 245 243 233 234 234 220 216 216 214 215 212 209 211 211 209 211 216 216 218 222 223 224 227 226 222 220 224 231 230 228 227 226 226 226 223 219 216 215 215 213 211 209 208 209 210 210 210 211 211 210 210 209 209 210 211 213 214 215 217 217 217 218 218
218 221 222 223 224 222 218 218 220 225 226 225 226 226 229 230 229 233 239 237 234 232 233 239 237 227 227 228 215 211 213 215 220 219 212 209 210 210 211 215 217 221 227 227 224 226 229 227 224 227 233 234 233 231 230 230 230 227 223 221 219 216 214 211 210 209 210 211 211 210 211 212 212 211 210 209 211 212 214 216 218 219 220 221 222 222
218 222 221 221 222 220 220 221 222 224 225 226 225 225 231 234 232 235 237 238 241 235 231 239 238 221 218 220 211 208 209 212 218 217 212 208 208 213 216 217 220 226 230 229 224 222 227 232 233 234 236 237 236 234 232 232 232 231 228 226 223 219 215 214 213 212 212 212 212 211 212 212 212 211 210 210 212 213 215 218 219 220 221 223 224 225
221 223 220 222 224 221 221 222 222 222 222 224 226 226 231 233 231 232 232 234 237 232 229 237 236 217 211 214 213 213 210 209 212 211 210 210 209 212 218 221 226 232 233 229 224 221 222 231 237 237 236 237 239 238 233 228 228 230 229 228 225 220 218 219 218 215 213 213 214 214 213 212 211 210 210 212 213 214 216 219 220 221 223 224 225 226
221 223 222 227 230 228 228 226 225 225 221 220 223 224 228 232 232 231 230 232 235 232 233 234 224 211 212 211 211 213 210 209 212 210 207 208 209 211 216 222 226 232 234 229 224 221 220 226 232 234 235 236 239 240 233 227 226 228 229 228 225 222 222 223 221 218 215 215 215 215 214 214 213 212 213 214 215 215 217 219 220 222 223 224 224 225
219 220 223 228 231 233 235 230 225 225 221 219 222 224 227 229 230 229 229 234 236 235 235 228 211 208 212 210 209 212 212 208 208 209 207 206 207 210 214 217 218 223 226 226 224 221 220 223 225 227 231 235 239 240 232 225 225 226 226 225 224 225 225 222 218 217 216 215 216 218 219 219 218 218 219 220 219 219 219 220 220 222 223 223 223 224
223 222 223 225 231 235 235 231 227 224 221 221 223 226 228 229 228 227 228 234 238 237 236 223 208 207 211 212 213 216 217 211 205 207 209 206 206 209 209 209 209 212 215 217 220 220 218 218 218 220 226 232 238 237 229 223 221 220 219 220 220 222 222 218 214 214 215 215 218 221 222 220 221 222 223 224 223 223 222 221 220 221 222 222 223 225
229 226 222 222 230 235 234 232 229 225 222 222 224 227 228 228 228 228 229 233 235 235 231 217 206 210 219 219 216 214 214 211 206 206 206 204 204 205 204 202 204 210 210 208 213 216 216 216 214 217 223 227 228 223 218 217 214 212 214 216 218 219 217 213 211 212 214 216 220 223 222 222 223 225 226 226 226 226 225 223 222 222 222 223 225 225
229 225 220 220 225 229 231 230 228 226 223 222 225 229 229 227 227 228 229 231 231 226 219 212 210 219 225 219 212 211 208 206 206 206 203 201 202 202 200 198 201 209 212 214 216 215 215 214 211 211 212 214 211 200 192 192 192 194 200 205 209 212 212 210 208 210 213 216 219 222 222 224 226 227 229 229 228 226 226 226 226 225 224 224 225 225
229 223 220 220 220 219 220 221 222 224 222 221 225 232 233 228 226 227 227 228 229 222 215 216 218 221 220 213 208 210 207 204 207 208 202 199 200 201 200 199 203 207 212 220 218 209 207 206 201 199 201 203 200 189 183 183 182 184 189 192 191 193 197 199 201 204 208 212 217 220 223 226 227 227 229 230 228 228 229 230 229 228 227 227 227 227
222 215 213 217 217 213 211 211 214 219 221 223 227 233 235 230 225 225 223 227 231 225 219 222 223 217 214 210 207 209 210 209 211 210 204 200 199 202 205 207 211 211 210 210 200 189 187 184 182 186 191 191 185 176 175 177 177 180 185 187 188 187 184 186 193 200 205 210 215 219 223 227 227 227 228 228 226 226 229 231 229 228 230 232 232 231
221 215 212 217 218 211 208 209 212 219 224 226 228 232 233 230 226 223 223 227 230 225 223 224 218 211 212 211 208 209 210 209 209 208 205 204 204 205 208 211 214 213 212 210 200 190 183 177 174 173 174 179 183 180 176 172 170 172 173 173 176 180 184 188 193 199 204 208 213 217 220 224 226 227 227 226 224 223 225 227 226 225 227 231 233 233
221 218 213 217 220 209 204 210 217 223 226 226 229 232 231 228 224 220 221 228 228 222 218 215 211 210 211 209 206 205 202 199 202 205 205 207 209 208 208 211 213 211 210 209 205 198 195 197 197 190 183 188 192 189 184 180 177 172 169 170 171 172 174 179 184 192 199 205 211 214 217 220 222 224 224 224 223 222 222 225 224 224 226 230 233 235
215 217 213 214 217 210 209 217 220 218 218 222 229 234 232 229 226 223 222 228 231 226 218 213 212 210 207 204 203 201 197 195 199 207 211 212 212 210 210 211 210 209 210 209 207 203 203 207 212 214 211 208 203 195 189 191 192 186 179 177 176 176 175 174 177 187 194 198 205 210 214 218 220 222 223 221 219 220 222 225 226 226 229 233 236 239
211 216 215 214 218 220 218 217 213 209 209 217 224 226 226 228 230 230 227 228 231 228 219 213 211 208 206 206 204 201 200 201 206 215 216 212 211 212 211 207 203 203 206 210 212 213 214 214 216 219 217 213 209 201 195 195 195 191 189 186 180 181 185 185 189 196 197 197 202 206 210 214 217 220 221 219 218 222 227 230 232 232 233 236 240 242
212 220 226 222 222 223 219 209 210 213 214 213 214 218 224 227 230 231 229 227 228 226 219 214 210 207 208 208 208 210 213 214 218 223 221 214 211 210 208 205 204 205 207 210 215 220 223 223 220 217 214 212 213 208 203 203 197 187 187 191 188 185 185 186 191 197 199 204 210 211 213 216 218 220 221 221 222 226 230 233 235 236 237 239 241 242
212 222 232 228 218 217 218 215 214 215 212 212 217 225 232 232 227 225 225 224 222 218 213 210 208 207 208 210 214 219 220 217 219 223 222 219 216 211 207 205 205 208 211 215 217 219 221 222 220 218 217 217 217 216 214 213 208 199 196 199 199 193 188 189 195 200 204 209 214 217 220 221 222 223 224 225 227 229 231 233 233 235 238 242 243 244
216 221 227 229 221 216 218 217 212 211 211 213 224 234 236 228 219 219 222 219 214 210 204 200 201 205 210 215 220 224 223 219 219 219 217 215 214 211 208 207 207 210 213 217 219 219 220 219 216 216 220 222 223 224 225 222 216 211 209 210 208 206 205 208 213 217 220 222 223 225 228 230 231 229 228 228 229 231 233 234 234 236 240 243 246 246
216 222 223 224 219 214 215 212 208 213 216 223 236 242 236 224 216 219 222 211 202 202 197 192 197 205 210 213 215 217 218 216 212 209 208 207 207 209 209 209 210 212 214 215 217 218 218 215 212 214 220 224 226 228 229 228 224 222 222 223 222 221 224 227 228 228 229 230 231 232 234 237 239 239 239 238 236 236 237 238 239 240 243 245 248 249
213 217 211 208 206 209 212 208 202 205 215 234 245 239 230 224 219 220 218 203 193 190 187 186 195 203 203 200 199 201 202 200 198 199 202 204 207 210 211 210 210 211 213 214 214 214 213 212 214 218 223 227 228 229 230 231 230 228 230 230 228 227 229 231 233 234 237 239 241 242 242 243 245 246 247 247 246 243 242 242 243 245 247 249 251 254
208 201 191 190 197 201 198 197 200 205 217 242 243 227 220 224 223 220 212 196 186 183 179 179 188 193 188 186 185 184 184 185 187 192 197 200 203 206 207 207 206 206 209 210 211 212 212 215 221 225 227 230 233 233 231 231 231 231 231 228 224 224 227 230 234 239 243 247 250 250 249 248 247 247 247 249 250 249 248 249 250 251 253 255 256 258
200 197 190 193 206 207 192 188 198 208 217 232 230 219 216 221 221 220 209 193 187 188 186 185 189 187 181 178 178 177 178 179 182 186 190 193 196 198 201 203 202 203 207 210 213 216 218 221 226 228 228 231 236 238 237 236 236 236 234 228 226 227 230 235 240 245 248 250 251 252 251 250 249 249 249 250 252 253 253 254 255 256 257 258 259 259
189 190 187 187 192 189 180 184 194 203 213 218 217 217 218 215 210 207 198 192 195 199 197 195 193 186 181 178 179 183 187 189 189 190 191 192 194 196 197 200 202 204 209 213 217 219 222 224 226 227 229 233 238 240 240 241 240 236 232 230 233 238 241 245 248 251 253 253 254 254 254 252 252 253 252 253 254 255 258 259 260 261 262 262 262 262
172 176 177 178 176 168 160 174 193 202 210 212 211 214 216 209 203 198 190 189 197 200 198 196 191 186 184 185 188 192 196 197 197 198 197 197 199 200 200 202 206 210 212 216 219 221 225 227 229 231 233 236 239 241 243 244 243 240 238 240 244 248 250 251 253 254 255 255 256 257 257 256 256 257 258 259 259 261 263 265 265 265 265 265 266 266
168 169 168 172 177 179 175 179 192 199 207 210 209 208 206 199 199 200 198 194 194 191 189 189 187 187 189 191 195 198 198 198 199 200 201 202 203 206 209 212 216 219 221 225 228 230 232 233 235 237 239 239 240 242 243 245 246 247 248 250 252 253 254 254 256 256 257 257 258 259 260 261 261 262 263 264 265 265 267 267 267 267 267 267 268 268
175 172 162 152 152 160 163 164 166 169 181 197 204 205 204 199 195 197 200 201 197 192 188 187 187 189 191 194 197 200 200 201 202 204 207 209 210 213 217 221 224 227 229 233 236 238 239 240 240 241 242 242 242 243 244 246 248 250 252 253 254 255 256 257 258 259 259 260 261 262 264 264 265 265 266 267 268 268 269 269 268 268 268 269 269 269
170 169 164 154 148 151 161 168 169 155 143 158 181 189 196 196 190 188 191 196 198 198 197 197 197 197 197 198 200 201 204 208 210 210 213 215 217 220 222 225 228 232 235 238 240 242 243 243 245 246 247 246 246 247 248 249 251 252 254 255 256 257 258 258 259 259 260 262 263 265 266 267 268 269 269 270 271 272 272 272 270 270 269 270 271 271
156 159 167 169 169 174 181 184 185 175 161 160 162 161 168 179 183 185 189 194 199 202 204 208 210 209 208 208 208 208 211 214 217 217 218 220 222 225 226 227 231 234 238 239 240 241 242 243 245 248 250 250 251 251 251 252 253 254 256 257 258 259 259 259 260 261 262 263 263 265 267 268 269 270 270 271 272 273 274 276 276 275 274 274 275 275
161 171 180 177 170 169 170 174 179 175 168 169 169 163 161 166 173 181 191 198 204 207 208 210 212 215 218 220 221 220 220 221 223 225 226 228 229 231 233 234 237 240 242 243 243 243 244 245 247 249 251 252 253 254 255 255 256 257 258 259 260 261 262 263 264 265 265 265 265 267 268 269 270 271 272 272 273 273 274 275 277 278 278 277 278 278